This is the latest recevied weather packets stored in our database for station/object DL1GHN-6. If no packets are shown the sender has not sent any weather packets the latest 10 day(s).
| Time | Temp. | Humidity | Pressure | Rain* | Wind** | Luminosity | Snow |
|---|---|---|---|---|---|---|---|
| 1777483833 | 20.56° C | 30% | 1018.6 hPa | 0 mm | - | 21 W/m² | - |
| 1777483533 | 20.56° C | 29% | 1018.6 hPa | 0 mm | - | 23 W/m² | - |
| 1777483232 | 20.56° C | 29% | 1018.6 hPa | 0 mm | - | 23 W/m² | - |
| 1777482934 | 21.11° C | 29% | 1018.5 hPa | 0 mm | - | 25 W/m² | - |
| 1777482633 | 21.11° C | 29% | 1018.6 hPa | 0 mm | - | 25 W/m² | - |
| 1777482333 | 21.11° C | 31% | 1018.4 hPa | 0 mm | - | 26 W/m² | - |
| 1777482033 | 21.11° C | 31% | 1018.5 hPa | 0 mm | - | 28 W/m² | - |
| 1777481734 | 21.67° C | 28% | 1018.5 hPa | 0 mm | - | 28 W/m² | - |
| 1777481433 | 21.67° C | 29% | 1018.4 hPa | 0 mm | - | 30 W/m² | - |
| 1777481133 | 21.67° C | 29% | 1018.4 hPa | 0 mm | - | 32 W/m² | - |
| 1777480832 | 21.67° C | 28% | 1018.4 hPa | 0 mm | - | 33 W/m² | - |
| 1777480533 | 21.67° C | 28% | 1018.4 hPa | 0 mm | - | 35 W/m² | - |
| 1777480232 | 22.22° C | 28% | 1018.3 hPa | 0 mm | - | 37 W/m² | - |
| 1777479932 | 22.22° C | 28% | 1018.3 hPa | 0 mm | - | 39 W/m² | - |
| 1777479632 | 22.22° C | 28% | 1018.3 hPa | 0 mm | - | 40 W/m² | - |
| 1777479332 | 22.78° C | 28% | 1018.2 hPa | 0 mm | - | 272 W/m² | - |
| 1777479033 | 22.78° C | 28% | 1018.2 hPa | 0 mm | - | 302 W/m² | - |
| 1777478732 | 22.78° C | 26% | 1018.2 hPa | 0 mm | - | 306 W/m² | - |
| 1777478432 | 22.78° C | 27% | 1018.2 hPa | 0 mm | - | 121 W/m² | - |
| 1777478133 | 22.78° C | 28% | 1018.2 hPa | 0 mm | - | 276 W/m² | - |
| 1777477833 | 23.33° C | 27% | 1018.1 hPa | 0 mm | - | 53 W/m² | - |
| 1777477534 | 23.33° C | 29% | 1018 hPa | 0 mm | - | 54 W/m² | - |
| 1777477234 | 23.33° C | 30% | 1018.1 hPa | 0 mm | - | 383 W/m² | - |
| 1777476933 | 23.33° C | 31% | 1018.1 hPa | 0 mm | - | 399 W/m² | - |
| 1777476633 | 23.89° C | 27% | 1017.9 hPa | 0 mm | - | 411 W/m² | - |
* Rain latest hour (hover to see other rain measurements)
** Current wind speed in m/s (hover to see current wind gust speed)